This demonstration page uses our WeatherBlox Daily Observations layout. Learn more.

Left ArrowRight Arrow

39.01783, -85.05884

Hourly Observations for September 16, 2018

Temp ( °F °C ) Dew Point ( °F °C ) Humidity (%) Winds ( mph kmh ) Pressure ( in mb ) Visibility ( mi km ) Precip ( " mm )
12:52 am 00:52 Mostly Clear 75 23.9 69 20.6 82 82 E 7 11 30.05 1018 10 16 N/A
1:52 am 01:52 Clear 74 23.3 69 20.6 85 85 E 8 13 30.04 1017 10 16 N/A
2:52 am 02:52 Mostly Clear 73 22.8 69 20.6 87 87 E 7 11 30.04 1017 10 16 N/A
3:52 am 03:52 Mostly Clear 74 23.3 69 20.6 85 85 ENE 9 15 30.04 1017 10 16 N/A
4:52 am 04:52 Partly Cloudy 73 22.8 69 20.6 87 87 NE 8 13 30.04 1017 10 16 N/A
5:52 am 05:52 Partly Cloudy 72 22.2 69 20.6 91 91 NNE 8 13 30.04 1017 10 16 N/A
6:52 am 06:52 Mostly Cloudy 72 22.2 69 20.6 91 91 ENE 13 20 30.04 1017 10 16 N/A
7:52 am 07:52 Partly Cloudy 72 22.2 68 20 87 87 ENE 12 19 30.05 1018 10 16 N/A
8:52 am 08:52 Partly Cloudy 72 22.2 68 20 87 87 ENE 9 15 30.06 1018 10 16 N/A
9:52 am 09:52 Mostly Cloudy 73 22.8 68 20 84 84 ENE 12 19 30.06 1018 10 16 N/A
10:52 am 10:52 Mostly Cloudy 75 23.9 68 20 79 79 NE 10 17 30.07 1018 10 16 N/A
11:52 am 11:52 Mostly Cloudy 77 25 69 20.6 77 77 E 9 15 30.07 1018 10 16 N/A
12:52 pm 12:52 Mostly Cloudy 80 26.7 69 20.6 69 69 E 8 13 30.05 1018 10 16 N/A
1:52 pm 13:52 Mostly Cloudy 83 28.3 69 20.6 63 63 NE 10 17 30.04 1017 10 16 N/A
2:52 pm 14:52 Mostly Cloudy 82 27.8 68 20 63 63 ENE 9 15 30.01 1016 10 16 N/A
3:52 pm 15:52 Mostly Cloudy 82 27.8 67 19.4 60 60 E 7 11 29.99 1016 10 16 N/A
4:52 pm 16:52 Mostly Cloudy 82 27.8 68 20 63 63 E 10 17 29.98 1015 10 16 N/A
5:52 pm 17:52 Mostly Cloudy 81 27.2 66 18.9 61 61 E 8 13 29.98 1015 10 16 N/A
6:52 pm 18:52 Mostly Cloudy 80 26.7 68 20 67 67 E 9 15 29.98 1015 10 16 N/A
7:52 pm 19:52 Mostly Cloudy 79 26.1 68 20 69 69 E 9 15 29.98 1015 10 16 N/A
8:52 pm 20:52 Mostly Cloudy 78 25.6 68 20 71 71 E 12 19 29.98 1015 10 16 N/A
9:52 pm 21:52 Mostly Cloudy 78 25.6 68 20 71 71 E 12 19 29.98 1015 10 16 N/A
10:52 pm 22:52 Cloudy 77 25 68 20 74 74 ENE 13 20 29.97 1015 10 16 N/A
11:52 pm 23:52 Cloudy 77 25 68 20 74 74 ENE 10 17 29.96 1015 10 16 N/A

Powered by AerisWeather